Back to catalog

THORAD AGENA D DEB

AliveSSO
NORAD 42492·DEBRIS·🇺🇸 United States

Launched Apr 8, 1970 from Vandenberg Space Force Base

Loading…

Next Passes (next 24 hours)

TLE

AgingSource: Space-Track

Epoch: Sep 9, 2026, 19:08 UTC

1 42492U 70025QW  26252.79756978  .00000229  00000-0  34534-3 0  9995
2 42492  99.2800  97.2409 0004894 247.0658 175.6905 13.63044758624139

Track THORAD AGENA D DEB in real time with AllMySat

Download on the App Store